KA8CNI Weather Reports


time (UTC)temp
C
wind
direction
speed
KPH
gust
KPH
rain 1hr
cm
rain 24hr
cm
rain mn
cm
humidity
%
barometer
mb
20260510153023 13 315 3.2 0.0 0.00 0.00 0.00 57 1014.9
20260510151521 12 332 3.2 0.0 0.00 0.00 0.00 56 1014.9
20260510150021 12 309 3.2 0.0 0.00 0.00 0.00 62 1014.7
20260510144525 12 82 3.2 0.0 0.00 0.00 0.00 64 1014.4
20260510143016 11 96 3.2 0.0 0.00 0.00 0.00 65 1014.3
20260510141513 11 42 1.6 0.0 0.00 0.00 0.00 65 1014.3
20260510140012 11 350 3.2 0.0 0.00 0.00 0.00 67 1014.1
20260510134512 11 313 3.2 0.0 0.00 0.00 0.00 70 1014.1
20260510133009 11 350 1.6 0.0 0.00 0.00 0.00 72 1014.0
20260510131506 10 341 0.0 0.0 0.00 0.00 0.00 78 1013.7
20260510130013 10 290 1.6 0.0 0.00 0.00 0.00 79 1013.5
20260510124502 9 327 0.0 0.0 0.00 0.00 0.00 83 1013.2
20260510123058 9 317 1.6 0.0 0.00 0.00 0.00 84 1012.8
20260510121557 9 35 1.6 0.0 0.00 0.00 0.00 85 1012.7
20260510120054 8 345 1.6 0.0 0.00 0.00 0.00 86 1012.2
20260510114554 9 321 0.0 0.0 0.00 0.00 0.00 86 1012.0
20260510113051 9 337 0.0 0.0 0.00 0.00 0.00 87 1011.8
20260510111600 9 25 0.0 0.0 0.00 0.00 0.00 87 1011.4
20260510110047 8 338 0.0 0.0 0.00 0.00 0.00 87 1011.0
20260510104604 8 360 0.0 0.0 0.00 0.00 0.00 87 1010.8
20260510103045 8 360 0.0 0.0 0.00 0.00 0.00 87 1010.5
20260510101540 8 360 0.0 0.0 0.00 0.00 0.00 87 1010.0
20260510100039 8 360 0.0 0.0 0.00 0.00 0.00 86 1009.9
20260510094540 8 360 0.0 0.0 0.00 0.00 0.00 87 1009.8
20260510093036 8 19 0.0 0.0 0.00 0.00 0.00 86 1009.8
20260510091535 8 19 0.0 0.0 0.00 0.00 0.00 86 1009.5
20260510090033 8 19 0.0 0.0 0.00 0.00 0.00 84 1009.2
20260510084530 8 19 0.0 0.0 0.00 0.00 0.00 84 1008.8
20260510083029 8 25 0.0 0.0 0.00 0.00 0.00 86 1008.5
20260510081527 8 45 0.0 0.0 0.00 0.00 0.00 86 1008.4
20260510080024 9 65 0.0 0.0 0.00 0.00 0.00 83 1008.4
20260510074521 10 65 0.0 0.0 0.00 0.00 0.00 83 1008.3
20260510073020 10 62 0.0 0.0 0.00 0.00 0.00 82 1007.9
20260510071515 10 346 0.0 0.0 0.00 0.00 0.00 82 1007.9
20260510070011 11 97 1.6 0.0 0.00 0.00 0.00 86 1007.6
20260510064508 12 333 3.2 0.0 0.00 0.00 0.00 91 1007.3
20260510063004 13 308 6.4 0.0 0.00 0.00 0.00 90 1006.9
20260510061502 13 298 11.3 0.0 0.00 0.00 0.00 89 1006.6
20260510060101 13 288 11.3 0.0 0.00 0.00 0.00 90 1006.4
20260510054600 13 281 11.3 0.0 0.00 0.00 0.00 91 1006.3
20260510053103 13 269 12.9 0.0 0.00 0.00 0.00 91 1006.2
20260510051640 13 271 11.3 0.0 0.00 0.00 0.00 91 1006.0
20260510050052 13 215 11.3 0.0 0.00 0.00 0.00 92 1005.8
20260510044549 13 250 8.0 0.0 0.00 0.00 0.00 94 1005.8
20260510043110 12 196 4.8 0.0 0.00 0.00 0.00 95 1005.4
20260510041550 12 177 3.2 0.0 0.00 0.00 0.00 96 1005.4
20260510040041 12 180 0.0 0.0 0.00 0.00 0.00 94 1005.2
20260510034544 13 180 0.0 0.0 0.00 0.00 1.17 93 1005.2
20260510033041 13 208 4.8 0.0 0.00 0.00 1.17 92 1005.2
20260510031607 13 194 9.7 0.0 0.00 0.00 1.17 90 1005.1
20260510030039 14 199 11.3 0.0 0.00 0.00 1.17 87 1004.9
20260510024538 15 245 11.3 0.0 0.00 0.00 1.12 87 1005.1
20260510023046 14 288 16.1 0.0 0.00 0.00 1.12 90 1005.1
20260510021541 13 258 9.7 0.0 0.00 0.00 1.09 93 1005.6
20260510020036 13 243 8.0 0.0 0.00 0.00 1.09 92 1005.0
20260510014535 13 223 6.4 0.0 0.00 0.00 1.09 92 1004.6
20260510013037 13 229 6.4 0.0 0.00 0.00 1.09 91 1004.3
20260510011541 14 232 8.0 0.0 0.00 0.00 1.09 90 1004.1
20260510010037 14 235 8.0 0.0 0.00 0.00 1.09 90 1004.0
20260510004534 14 235 8.0 0.0 0.00 0.00 1.09 89 1003.9
20260510003033 15 246 16.1 0.0 0.00 0.00 1.09 87 1003.7
20260510001532 14 266 19.3 0.0 0.00 0.00 1.09 89 1004.0
20260510000032 13 278 14.5 0.0 0.00 0.00 1.07 91 1004.1
20260509234535 13 269 19.3 0.0 0.00 0.00 1.04 92 1004.2
20260509233032 13 284 25.7 0.0 0.00 0.00 1.02 91 1004.3
20260509231557 15 279 30.6 0.0 0.00 0.00 0.71 81 1004.3
20260509230114 20 252 22.5 0.0 0.00 0.00 0.71 64 1002.4
20260509224521 20 212 22.5 0.0 0.00 0.00 0.71 60 1001.9
20260509223025 20 241 24.1 0.0 0.00 0.00 0.71 59 1001.7
20260509221524 21 240 29.0 0.0 0.00 0.00 0.71 56 1001.8
20260509220019 21 217 24.1 0.0 0.00 0.00 0.71 58 1001.7
20260509214517 21 214 22.5 0.0 0.00 0.00 0.71 58 1001.7
20260509213017 21 212 25.7 0.0 0.00 0.00 0.71 58 1001.6
20260509211529 21 200 24.1 0.0 0.00 0.00 0.71 60 1001.8
20260509210015 21 210 19.3 0.0 0.00 0.00 0.71 62 1002.1
20260509204510 21 242 20.9 0.0 0.00 0.00 0.71 64 1002.4
20260509203017 20 210 20.9 0.0 0.00 0.00 0.71 65 1002.5
20260509201506 20 206 22.5 0.0 0.00 0.00 0.71 65 1002.8
20260509200004 20 232 20.9 0.0 0.00 0.00 0.71 67 1003.1
20260509194501 20 197 22.5 0.0 0.00 0.00 0.71 65 1003.4
20260509193100 20 206 20.9 0.0 0.00 0.00 0.71 67 1003.3
20260509191600 19 227 22.5 0.0 0.00 0.00 0.71 68 1003.5
20260509190101 20 184 20.9 0.0 0.00 0.00 0.71 67 1003.7
20260509184552 19 215 16.1 0.0 0.00 0.00 0.71 70 1003.9
20260509183053 18 234 24.1 0.0 0.00 0.00 0.71 70 1004.0
20260509181605 18 229 24.1 0.0 0.00 0.00 0.71 71 1003.9
20260509180048 18 235 22.5 0.0 0.00 0.00 0.71 73 1003.9
20260509174551 18 232 19.3 0.0 0.00 0.00 0.71 72 1004.2
20260509173043 18 243 19.3 0.0 0.00 0.00 0.71 73 1004.1
20260509171541 17 230 17.7 0.0 0.00 0.00 0.71 75 1004.4
20260509170040 17 207 22.5 0.0 0.00 0.00 0.71 75 1004.4
20260509164538 16 238 16.1 0.0 0.00 0.00 0.71 76 1004.3
20260509163048 16 230 17.7 0.0 0.00 0.00 0.71 78 1004.2
20260509161533 16 248 19.3 0.0 0.00 0.00 0.71 79 1004.8
20260509160032 16 222 19.3 0.0 0.00 0.00 0.71 79 1004.9
20260509154530 15 231 19.3 0.0 0.00 0.00 0.71 80 1004.7